Time,TemperatureF,DewpointF,PressureIn,WindDirection,WindDirectionDegrees,WindSpeedMPH,WindSpeedGustMPH,Humidity,HourlyPrecipIn,Conditions,Clouds,dailyrainin,SolarRadiationWatts/m^2,SoftwareType,DateUTC
2013-10-09 00:00:00,52.0,21.0,-100.00,SW,222,10.0,23.0,29,0.00,,,0.00,0.000000,,2013-10-09 07:00:00,
2013-10-09 00:22:00,52.0,21.0,-100.00,SW,222,10.0,23.0,29,0.00,,,0.00,0.000000,,2013-10-09 07:22:00,
2013-10-09 00:32:00,52.0,21.0,-100.00,SW,222,10.0,23.0,29,0.00,,,0.00,0.000000,,2013-10-09 07:32:00,
2013-10-09 00:42:00,52.0,21.0,-100.00,SW,222,10.0,23.0,29,0.00,,,0.00,0.000000,,2013-10-09 07:42:00,
2013-10-09 00:52:00,52.0,21.0,-100.00,SW,222,10.0,23.0,29,0.00,,,0.00,0.000000,,2013-10-09 07:52:00,
2013-10-09 01:00:00,50.0,21.0,-100.00,SW,221,10.0,22.0,31,0.00,,,0.00,0.000000,,2013-10-09 08:00:00,
2013-10-09 01:23:00,50.0,21.0,-100.00,SW,221,10.0,22.0,31,0.00,,,0.00,0.000000,,2013-10-09 08:23:00,
2013-10-09 01:32:00,50.0,21.0,-100.00,SW,221,10.0,22.0,31,0.00,,,0.00,0.000000,,2013-10-09 08:32:00,
2013-10-09 01:42:00,50.0,21.0,-100.00,SW,221,10.0,22.0,31,0.00,,,0.00,0.000000,,2013-10-09 08:42:00,
2013-10-09 01:53:00,50.0,21.0,-100.00,SW,221,10.0,22.0,31,0.00,,,0.00,0.000000,,2013-10-09 08:53:00,
2013-10-09 02:00:00,50.0,23.0,-100.00,SW,221,11.0,23.0,35,0.00,,,0.00,0.000000,,2013-10-09 09:00:00,
2013-10-09 02:22:00,50.0,23.0,-100.00,SW,221,11.0,23.0,35,0.00,,,0.00,0.000000,,2013-10-09 09:22:00,
2013-10-09 02:33:00,50.0,23.0,-100.00,SW,221,11.0,23.0,35,0.00,,,0.00,0.000000,,2013-10-09 09:33:00,
2013-10-09 02:43:00,50.0,23.0,-100.00,SW,221,11.0,23.0,35,0.00,,,0.00,0.000000,,2013-10-09 09:43:00,
2013-10-09 02:53:00,50.0,23.0,-100.00,SW,221,11.0,23.0,35,0.00,,,0.00,0.000000,,2013-10-09 09:53:00,
2013-10-09 03:00:00,48.0,25.0,-100.00,SSE,162,3.0,19.0,41,0.00,,,0.00,0.000000,,2013-10-09 10:00:00,
2013-10-09 03:23:00,48.0,25.0,-100.00,SSE,162,3.0,19.0,41,0.00,,,0.00,0.000000,,2013-10-09 10:23:00,
2013-10-09 03:33:00,48.0,25.0,-100.00,SSE,162,3.0,19.0,41,0.00,,,0.00,0.000000,,2013-10-09 10:33:00,
2013-10-09 03:43:00,48.0,25.0,-100.00,SSE,162,3.0,19.0,41,0.00,,,0.00,0.000000,,2013-10-09 10:43:00,
2013-10-09 03:53:00,48.0,25.0,-100.00,SSE,162,3.0,19.0,41,0.00,,,0.00,0.000000,,2013-10-09 10:53:00,
2013-10-09 04:00:00,48.0,25.0,-100.00,West,279,4.0,11.0,41,0.00,,,0.00,0.000000,,2013-10-09 11:00:00,
2013-10-09 04:22:00,48.0,25.0,-100.00,West,279,4.0,11.0,41,0.00,,,0.00,0.000000,,2013-10-09 11:22:00,
2013-10-09 04:33:00,48.0,25.0,-100.00,West,279,4.0,11.0,41,0.00,,,0.00,0.000000,,2013-10-09 11:33:00,
2013-10-09 04:42:00,48.0,25.0,-100.00,West,279,4.0,11.0,41,0.00,,,0.00,0.000000,,2013-10-09 11:42:00,
2013-10-09 04:52:00,48.0,25.0,-100.00,West,279,4.0,11.0,41,0.00,,,0.00,0.000000,,2013-10-09 11:52:00,
2013-10-09 05:00:00,46.0,26.0,-100.00,SSE,168,3.0,12.0,45,0.00,,,0.00,0.000000,,2013-10-09 12:00:00,
2013-10-09 05:42:00,46.0,26.0,-100.00,SSE,168,3.0,12.0,45,0.00,,,0.00,0.000000,,2013-10-09 12:42:00,
2013-10-09 05:52:00,46.0,26.0,-100.00,SSE,168,3.0,12.0,45,0.00,,,0.00,0.000000,,2013-10-09 12:52:00,
2013-10-09 06:00:00,45.0,27.0,-100.00,SSW,206,3.0,10.0,48,0.00,,,0.00,0.000000,,2013-10-09 13:00:00,
2013-10-09 06:42:00,45.0,27.0,-100.00,SSW,206,3.0,10.0,48,0.00,,,0.00,0.000000,,2013-10-09 13:42:00,
2013-10-09 06:52:00,45.0,27.0,-100.00,SSW,206,3.0,10.0,48,0.00,,,0.00,0.000000,,2013-10-09 13:52:00,
2013-10-09 07:00:00,45.0,25.0,-100.00,SSE,156,4.0,12.0,46,0.00,,,0.00,0.000000,,2013-10-09 14:00:00,
2013-10-09 07:22:00,45.0,25.0,-100.00,SSE,156,4.0,12.0,46,0.00,,,0.00,0.000000,,2013-10-09 14:22:00,
2013-10-09 07:32:00,45.0,25.0,-100.00,SSE,156,4.0,12.0,46,0.00,,,0.00,0.000000,,2013-10-09 14:32:00,
2013-10-09 07:42:00,45.0,25.0,-100.00,SSE,156,4.0,12.0,46,0.00,,,0.00,0.000000,,2013-10-09 14:42:00,
2013-10-09 07:52:00,45.0,25.0,-100.00,SSE,156,4.0,12.0,46,0.00,,,0.00,0.000000,,2013-10-09 14:52:00,
2013-10-09 08:00:00,47.0,26.0,-100.00,SE,141,3.0,14.0,44,0.00,,,0.00,20.000000,,2013-10-09 15:00:00,
2013-10-09 08:22:00,47.0,26.0,-100.00,SE,141,3.0,14.0,44,0.00,,,0.00,20.000000,,2013-10-09 15:22:00,
2013-10-09 08:33:00,47.0,26.0,-100.00,SE,141,3.0,14.0,44,0.00,,,0.00,20.000000,,2013-10-09 15:33:00,
2013-10-09 08:43:00,47.0,26.0,-100.00,SE,141,3.0,14.0,44,0.00,,,0.00,20.000000,,2013-10-09 15:43:00,
2013-10-09 08:53:00,47.0,26.0,-100.00,SE,141,3.0,14.0,44,0.00,,,0.00,20.000000,,2013-10-09 15:53:00,
2013-10-09 09:00:00,52.0,25.0,-100.00,SSE,151,6.0,16.0,35,0.00,,,0.00,173.000000,,2013-10-09 16:00:00,
2013-10-09 09:24:00,52.0,25.0,-100.00,SSE,151,6.0,16.0,35,0.00,,,0.00,173.000000,,2013-10-09 16:24:00,
2013-10-09 09:33:00,52.0,25.0,-100.00,SSE,151,6.0,16.0,35,0.00,,,0.00,173.000000,,2013-10-09 16:33:00,
2013-10-09 09:42:00,52.0,25.0,-100.00,SSE,151,6.0,16.0,35,0.00,,,0.00,173.000000,,2013-10-09 16:42:00,
2013-10-09 09:52:00,52.0,25.0,-100.00,SSE,151,6.0,16.0,35,0.00,,,0.00,173.000000,,2013-10-09 16:52:00,
2013-10-09 10:00:00,55.0,26.0,-100.00,NE,36,5.0,18.0,33,0.00,,,0.00,452.000000,,2013-10-09 17:00:00,
2013-10-09 10:23:00,55.0,26.0,-100.00,NE,36,5.0,18.0,33,0.00,,,0.00,452.000000,,2013-10-09 17:23:00,
2013-10-09 10:33:00,55.0,26.0,-100.00,NE,36,5.0,18.0,33,0.00,,,0.00,452.000000,,2013-10-09 17:33:00,
2013-10-09 10:42:00,55.0,26.0,-100.00,NE,36,5.0,18.0,33,0.00,,,0.00,452.000000,,2013-10-09 17:42:00,
2013-10-09 10:52:00,55.0,26.0,-100.00,NE,36,5.0,18.0,33,0.00,,,0.00,452.000000,,2013-10-09 17:52:00,
2013-10-09 11:00:00,55.0,23.0,-100.00,SW,229,4.0,19.0,28,0.00,,,0.00,648.000000,,2013-10-09 18:00:00,
2013-10-09 11:22:00,55.0,23.0,-100.00,SW,229,4.0,19.0,28,0.00,,,0.00,648.000000,,2013-10-09 18:22:00,
2013-10-09 11:32:00,55.0,23.0,-100.00,SW,229,4.0,19.0,28,0.00,,,0.00,648.000000,,2013-10-09 18:32:00,
2013-10-09 11:42:00,55.0,23.0,-100.00,SW,229,4.0,19.0,28,0.00,,,0.00,648.000000,,2013-10-09 18:42:00,
2013-10-09 11:52:00,55.0,23.0,-100.00,SW,229,4.0,19.0,28,0.00,,,0.00,648.000000,,2013-10-09 18:52:00,
2013-10-09 12:00:00,60.0,23.0,-100.00,ESE,114,5.0,25.0,24,0.00,,,0.00,628.000000,,2013-10-09 19:00:00,
2013-10-09 12:22:00,60.0,23.0,-100.00,ESE,114,5.0,25.0,24,0.00,,,0.00,628.000000,,2013-10-09 19:22:00,
2013-10-09 12:32:00,60.0,23.0,-100.00,ESE,114,5.0,25.0,24,0.00,,,0.00,628.000000,,2013-10-09 19:32:00,
2013-10-09 12:42:00,60.0,23.0,-100.00,ESE,114,5.0,25.0,24,0.00,,,0.00,628.000000,,2013-10-09 19:42:00,
2013-10-09 12:52:00,60.0,23.0,-100.00,ESE,114,5.0,25.0,24,0.00,,,0.00,628.000000,,2013-10-09 19:52:00,
2013-10-09 13:00:00,59.0,21.0,-100.00,NNW,340,5.0,19.0,23,0.00,,,0.00,826.000000,,2013-10-09 20:00:00,
2013-10-09 13:22:00,59.0,21.0,-100.00,NNW,340,5.0,19.0,23,0.00,,,0.00,826.000000,,2013-10-09 20:22:00,
2013-10-09 13:32:00,59.0,21.0,-100.00,NNW,340,5.0,19.0,23,0.00,,,0.00,826.000000,,2013-10-09 20:32:00,
2013-10-09 13:43:00,59.0,21.0,-100.00,NNW,340,5.0,19.0,23,0.00,,,0.00,826.000000,,2013-10-09 20:43:00,
2013-10-09 13:52:00,59.0,21.0,-100.00,NNW,340,5.0,19.0,23,0.00,,,0.00,826.000000,,2013-10-09 20:52:00,
2013-10-09 14:00:00,58.0,17.0,-100.00,SSE,153,6.0,17.0,20,0.00,,,0.00,626.000000,,2013-10-09 21:00:00,
2013-10-09 14:23:00,58.0,17.0,-100.00,SSE,153,6.0,17.0,20,0.00,,,0.00,626.000000,,2013-10-09 21:23:00,
2013-10-09 14:34:00,58.0,17.0,-100.00,SSE,153,6.0,17.0,20,0.00,,,0.00,626.000000,,2013-10-09 21:34:00,
2013-10-09 14:44:00,58.0,17.0,-100.00,SSE,153,6.0,17.0,20,0.00,,,0.00,626.000000,,2013-10-09 21:44:00,
2013-10-09 14:53:00,58.0,17.0,-100.00,SSE,153,6.0,17.0,20,0.00,,,0.00,626.000000,,2013-10-09 21:53:00,
2013-10-09 15:00:00,57.0,17.0,-100.00,SW,216,11.0,28.0,21,0.00,,,0.00,437.000000,,2013-10-09 22:00:00,
2013-10-09 15:43:00,57.0,17.0,-100.00,SW,216,11.0,28.0,21,0.00,,,0.00,437.000000,,2013-10-09 22:43:00,
2013-10-09 15:53:00,57.0,17.0,-100.00,SW,216,11.0,28.0,21,0.00,,,0.00,437.000000,,2013-10-09 22:53:00,
2013-10-09 16:00:00,55.0,18.0,-100.00,SW,218,11.0,21.0,23,0.00,,,0.00,352.000000,,2013-10-09 23:00:00,
2013-10-09 16:43:00,55.0,18.0,-100.00,SW,218,11.0,21.0,23,0.00,,,0.00,352.000000,,2013-10-09 23:43:00,
2013-10-09 16:53:00,55.0,18.0,-100.00,SW,218,11.0,21.0,23,0.00,,,0.00,352.000000,,2013-10-09 23:53:00,
2013-10-09 17:00:00,52.0,19.0,-100.00,WNW,290,11.0,24.0,27,0.00,,,0.00,159.000000,,2013-10-10 00:00:00,
2013-10-09 17:22:00,52.0,19.0,-100.00,WNW,290,11.0,24.0,27,0.00,,,0.00,159.000000,,2013-10-10 00:22:00,
2013-10-09 17:32:00,52.0,19.0,-100.00,WNW,290,11.0,24.0,27,0.00,,,0.00,159.000000,,2013-10-10 00:32:00,
2013-10-09 17:42:00,52.0,19.0,-100.00,WNW,290,11.0,24.0,27,0.00,,,0.00,159.000000,,2013-10-10 00:42:00,
2013-10-09 17:52:00,52.0,19.0,-100.00,WNW,290,11.0,24.0,27,0.00,,,0.00,159.000000,,2013-10-10 00:52:00,
2013-10-09 18:00:00,51.0,21.0,-100.00,SW,225,6.0,22.0,30,0.00,,,0.00,77.000000,,2013-10-10 01:00:00,
2013-10-09 18:42:00,51.0,21.0,-100.00,SW,225,6.0,22.0,30,0.00,,,0.00,77.000000,,2013-10-10 01:42:00,
2013-10-09 18:52:00,51.0,21.0,-100.00,SW,225,6.0,22.0,30,0.00,,,0.00,77.000000,,2013-10-10 01:52:00,
2013-10-09 19:00:00,50.0,23.0,-100.00,West,277,7.0,18.0,34,0.00,,,0.00,9.000000,,2013-10-10 02:00:00,
2013-10-09 19:52:00,50.0,23.0,-100.00,West,277,7.0,18.0,34,0.00,,,0.00,9.000000,,2013-10-10 02:52:00,
2013-10-09 20:00:00,51.0,24.0,-100.00,SW,221,12.0,21.0,34,0.00,,,0.00,0.000000,,2013-10-10 03:00:00,
2013-10-09 20:44:00,51.0,24.0,-100.00,SW,221,12.0,21.0,34,0.00,,,0.00,0.000000,,2013-10-10 03:44:00,
2013-10-09 20:55:00,51.0,24.0,-100.00,SW,221,12.0,21.0,34,0.00,,,0.00,0.000000,,2013-10-10 03:55:00,
2013-10-09 21:00:00,46.0,32.0,-100.00,SW,225,9.0,48.0,59,0.00,,,0.00,0.000000,,2013-10-10 04:00:00,
2013-10-09 21:24:00,46.0,32.0,-100.00,SW,225,9.0,48.0,59,0.00,,,0.00,0.000000,,2013-10-10 04:24:00,
2013-10-09 21:33:00,46.0,32.0,-100.00,SW,225,9.0,48.0,59,0.00,,,0.00,0.000000,,2013-10-10 04:33:00,
2013-10-09 21:54:00,46.0,32.0,-100.00,SW,225,9.0,48.0,59,0.00,,,0.00,0.000000,,2013-10-10 04:54:00,
2013-10-09 22:00:00,45.0,28.0,-100.00,SW,217,17.0,47.0,52,0.00,,,0.00,0.000000,,2013-10-10 05:00:00,
2013-10-09 22:43:00,45.0,28.0,-100.00,SW,217,17.0,47.0,52,0.00,,,0.00,0.000000,,2013-10-10 05:43:00,
2013-10-09 22:52:00,45.0,28.0,-100.00,SW,217,17.0,47.0,52,0.00,,,0.00,0.000000,,2013-10-10 05:52:00,
2013-10-09 23:00:00,46.0,27.0,-100.00,SW,221,12.0,39.0,48,0.00,,,0.00,0.000000,,2013-10-10 06:00:00,
2013-10-09 23:42:00,46.0,27.0,-100.00,SW,221,12.0,39.0,48,0.00,,,0.00,0.000000,,2013-10-10 06:42:00,
2013-10-09 23:53:00,46.0,27.0,-100.00,SW,221,12.0,39.0,48,0.00,,,0.00,0.000000,,2013-10-10 06:53:00,